| time (UTC) | temp F | wind direction | speed MPH | gust MPH | rain 1hr in | rain 24hr in | rain mn in | humidity % | barometer mb |
| 20260504004136 | 75 | 80 | 8.0 | 18.0 | 0.00 | 0.03 | 0.03 | 70 | 1015.7 |
| 20260504002000 | 75 | 71 | 7.0 | 14.0 | 0.00 | 0.03 | 0.03 | 70 | 1015.6 |
| 20260503234723 | 74 | 55 | 6.0 | 13.0 | 0.00 | 0.03 | 0.03 | 71 | 1015.4 |
| 20260503232542 | 75 | 70 | 8.0 | 15.0 | 0.00 | 0.03 | 0.03 | 70 | 1015.3 |
| 20260503230416 | 75 | 53 | 8.0 | 17.0 | 0.00 | 0.03 | 0.03 | 71 | 1015.1 |
| 20260503225354 | 75 | 22 | 8.0 | 17.0 | 0.00 | 0.03 | 0.03 | 71 | 1015.1 |
| 20260503222131 | 75 | 49 | 7.0 | 13.0 | 0.00 | 0.03 | 0.03 | 70 | 1015.3 |
| 20260503221058 | 75 | 30 | 6.0 | 15.0 | 0.00 | 0.03 | 0.03 | 69 | 1015.4 |
| 20260503220114 | 75 | 22 | 7.0 | 15.0 | 0.00 | 0.03 | 0.03 | 69 | 1015.3 |
| 20260503215116 | 75 | 69 | 6.0 | 12.0 | 0.00 | 0.03 | 0.03 | 68 | 1015.2 |
| 20260503214107 | 75 | 26 | 6.0 | 14.0 | 0.00 | 0.03 | 0.03 | 68 | 1015.4 |
| 20260503213129 | 76 | 42 | 7.0 | 14.0 | 0.00 | 0.03 | 0.03 | 67 | 1015.2 |
| 20260503212108 | 76 | 51 | 7.0 | 14.0 | 0.00 | 0.03 | 0.03 | 67 | 1015.2 |
| 20260503211125 | 76 | 27 | 7.0 | 15.0 | 0.00 | 0.03 | 0.03 | 69 | 1015.3 |
| 20260503210126 | 76 | 55 | 7.0 | 15.0 | 0.00 | 0.03 | 0.03 | 68 | 1015.3 |
| 20260503205131 | 76 | 46 | 6.0 | 14.0 | 0.00 | 0.03 | 0.03 | 69 | 1015.4 |
| 20260503204113 | 75 | 26 | 8.0 | 16.0 | 0.00 | 0.03 | 0.03 | 69 | 1015.6 |
| 20260503203131 | 75 | 43 | 8.0 | 16.0 | 0.00 | 0.03 | 0.03 | 69 | 1015.6 |
| 20260503200950 | 75 | 32 | 6.0 | 16.0 | 0.00 | 0.03 | 0.03 | 68 | 1015.5 |
| 20260503195942 | 75 | 38 | 6.0 | 15.0 | 0.00 | 0.03 | 0.03 | 70 | 1015.5 |
| 20260503194915 | 75 | 59 | 7.0 | 15.0 | 0.00 | 0.03 | 0.03 | 69 | 1015.5 |
| 20260503193849 | 75 | 45 | 6.0 | 14.0 | 0.00 | 0.03 | 0.03 | 69 | 1015.6 |
| 20260503192815 | 75 | 48 | 6.0 | 12.0 | 0.00 | 0.03 | 0.03 | 69 | 1015.8 |
| 20260503191738 | 75 | 65 | 6.0 | 12.0 | 0.00 | 0.03 | 0.03 | 69 | 1015.9 |
| 20260503190705 | 75 | 32 | 6.0 | 13.0 | 0.00 | 0.03 | 0.03 | 69 | 1016.2 |
| 20260503185711 | 75 | 27 | 7.0 | 14.0 | 0.00 | 0.03 | 0.03 | 70 | 1016.3 |
| 20260503183534 | 75 | 18 | 9.0 | 15.0 | 0.00 | 0.03 | 0.03 | 70 | 1016.7 |
| 20260503182529 | 75 | 44 | 7.0 | 14.0 | 0.00 | 0.03 | 0.03 | 70 | 1016.9 |
| 20260503181459 | 74 | 31 | 6.0 | 13.0 | 0.00 | 0.03 | 0.03 | 69 | 1016.8 |
| 20260503180444 | 74 | 65 | 6.0 | 13.0 | 0.00 | 0.03 | 0.03 | 70 | 1017.1 |
| 20260503173217 | 74 | 355 | 7.0 | 17.0 | 0.00 | 0.03 | 0.03 | 69 | 1017.1 |
| 20260503172212 | 74 | 17 | 7.0 | 17.0 | 0.00 | 0.03 | 0.03 | 70 | 1017.0 |
| 20260503171216 | 74 | 49 | 7.0 | 13.0 | 0.00 | 0.03 | 0.03 | 69 | 1016.9 |
| 20260503170220 | 74 | 46 | 8.0 | 14.0 | 0.00 | 0.03 | 0.03 | 69 | 1017.0 |
| 20260503130629 | 73 | 31 | 11.0 | 19.0 | 0.00 | 0.02 | 0.02 | 73 | 1015.8 |
| 20260503110423 | 69 | 41 | 8.0 | 14.0 | 0.00 | 0.02 | 0.02 | 84 | 1014.9 |
| 20260503090233 | 70 | 330 | 7.0 | 11.0 | 0.08 | 0.02 | 0.02 | 83 | 1014.0 |
| 20260503072812 | 70 | 344 | 9.0 | 15.0 | 0.00 | 0.00 | 0.00 | 84 | 1013.5 |
| 20260503071822 | 71 | 343 | 10.0 | 16.0 | 0.00 | 0.00 | 0.00 | 84 | 1013.3 |
| 20260503070835 | 71 | 342 | 9.0 | 17.0 | 0.00 | 0.00 | 0.00 | 84 | 1013.4 |
| 20260503054348 | 74 | 290 | 12.0 | 14.0 | 0.00 | 0.00 | 0.00 | 80 | 1013.6 |
| 20260503053342 | 74 | 275 | 12.0 | 16.0 | 0.00 | 0.00 | 0.00 | 80 | 1013.5 |
| 20260503052321 | 74 | 281 | 12.0 | 16.0 | 0.00 | 0.00 | 0.00 | 79 | 1013.5 |
| 20260503051334 | 75 | 281 | 11.0 | 14.0 | 0.00 | 0.00 | 0.00 | 78 | 1013.6 |
| 20260503050324 | 75 | 281 | 11.0 | 15.0 | 0.00 | 0.00 | 0.00 | 77 | 1013.6 |
| 20260503045331 | 75 | 284 | 12.0 | 16.0 | 0.00 | 0.00 | 0.00 | 77 | 1013.3 |
| 20260503044344 | 75 | 265 | 13.0 | 16.0 | 0.00 | 0.00 | 0.00 | 77 | 1013.4 |
| 20260503043351 | 75 | 263 | 12.0 | 15.0 | 0.00 | 0.00 | 0.00 | 78 | 1013.2 |
| 20260503042404 | 75 | 272 | 11.0 | 15.0 | 0.00 | 0.00 | 0.00 | 79 | 1012.9 |
| 20260503041402 | 75 | 267 | 11.0 | 14.0 | 0.00 | 0.00 | 0.00 | 80 | 1013.1 |
| 20260503035254 | 75 | 272 | 12.0 | 16.0 | 0.00 | 0.00 | 0.00 | 80 | 1013.3 |
| 20260503034231 | 75 | 270 | 12.0 | 16.0 | 0.00 | 0.00 | 0.00 | 79 | 1013.0 |
| 20260503032133 | 75 | 283 | 12.0 | 16.0 | 0.00 | 0.00 | 0.00 | 78 | 1012.7 |
| 20260503031123 | 75 | 284 | 11.0 | 15.0 | 0.00 | 0.00 | 0.00 | 79 | 1012.4 |
| 20260503023917 | 76 | 293 | 11.0 | 18.0 | 0.00 | 0.00 | 0.00 | 79 | 1012.1 |
| 20260503022928 | 76 | 308 | 14.0 | 18.0 | 0.00 | 0.00 | 0.00 | 79 | 1012.1 |
| 20260503021935 | 76 | 305 | 13.0 | 17.0 | 0.00 | 0.00 | 0.00 | 80 | 1011.9 |
| 20260503020919 | 77 | 313 | 11.0 | 14.0 | 0.00 | 0.00 | 0.00 | 78 | 1011.6 |
| 20260503014811 | 77 | 275 | 9.0 | 13.0 | 0.00 | 0.00 | 0.00 | 76 | 1011.1 |
| 20260503013833 | 78 | 284 | 9.0 | 13.0 | 0.00 | 0.00 | 0.00 | 74 | 1011.1 |
| 20260503012806 | 77 | 265 | 4.0 | 8.0 | 0.00 | 0.00 | 0.00 | 73 | 1010.0 |
| 20260503011759 | 77 | 225 | 5.0 | 14.0 | 0.00 | 0.00 | 0.00 | 73 | 1009.8 |
| 20260503010736 | 78 | 220 | 11.0 | 20.0 | 0.00 | 0.00 | 0.00 | 73 | 1010.2 |
| 20260503005729 | 78 | 205 | 15.0 | 20.0 | 0.00 | 0.00 | 0.00 | 73 | 1010.3 |
| 20260503004735 | 78 | 198 | 13.0 | 19.0 | 0.00 | 0.00 | 0.00 | 72 | 1010.2 |